Regional Weather Roundup
Issued by NWS Midland/Odessa, TX

Skip options and go directly to product.
Home | Oldest Version | Previous Version | Current Version | All | Graphics & Text | Save Text | Print | Product List | Glossary On

Skip product version selection by date and time.   
068
ASUS44 KMAF 210301
RWRMAF
MIDLAND AREA WEATHER ROUNDUP
NATIONAL WEATHER SERVICE MIDLAND TX
1000 PM CDT MON APR 20 2015

...IN SOUTHWEST TEXAS AND SOUTHEAST NEW MEXICO...

CITY           SKY/WX    TMP DP  RH WIND       PRES   REMARKS
ALPINE         CLEAR     58  44  58 S9        30.02R
ANDREWS        FAIR      60  39  45 S8        29.93R
ARTESIA        PTCLDY    61  39  44 S12       29.89R
BIG SPRING     CLEAR     65  35  33 SE9       29.95R
CARLSBAD       CLEAR     62  39  42 S9        29.88R
DRYDEN           N/A     59  42  53 E5        29.95R
FORT STOCKTON  CLEAR     61  43  51 SE16G24   29.93R
GUAD PASS      NOT AVBL
HOBBS          CLEAR     55  39  54 SE8       29.93R
MARFA          NOT AVBL
MIDLAND AIRPK  CLEAR     66  38  35 S10       29.93R
MIDLAND INTL   FAIR      64  40  41 S13       29.93R
ODESSA         CLEAR     65  39  38 S15       29.94R
PECOS          CLEAR     65  44  45 E13       29.89R
PRESIDIO       FAIR      72  44  36 NE12      29.87R
SEMINOLE       CLEAR     58  38  47 S8        29.93R
SNYDER         CLEAR    N/A N/A N/A SE10      29.94R
WINK           CLEAR     64  40  41 SE13      29.89R
$$
...OTHER STATIONS IN TEXAS...

CITY           SKY/WX    TMP DP  RH WIND       PRES   REMARKS
ABILENE        CLEAR     57  42  57 SE9       29.96R
AMARILLO       TSTM      53  44  71 S12       29.97R
AUSTIN         CLOUDY    58  53  84 CALM      30.00R
BROWNSVILLE    CLOUDY    71  63  75 NE10      29.96R
CORPUS CHRISTI MOCLDY    65  54  67 NE7       29.99R
DALLAS FTW     PTCLDY    61  42  49 NE3       29.99R
DEL RIO        CLOUDY    67  42  40 SE13      29.96R
EL PASO        PTCLDY    75  19  12 W7        29.86R
HOUSTON INT    CLOUDY    63  53  70 CALM      29.99R
LUBBOCK        PTCLDY    58  36  43 SE16      29.92R
SAN ANGELO     PTCLDY    61  44  53 SE10      29.95R
SAN ANTONIO    CLOUDY    63  50  62 SE7       30.02R
WACO           CLOUDY    59  46  62 CALM      30.00R
WICHITA FALLS  NOT AVBL
$$
...OTHER LOCATIONS IN NEW MEXICO...

CITY           SKY/WX    TMP DP  RH WIND       PRES   REMARKS
ALAMAGORDO     MOCLDY    64  32  29 E3        29.88R
ALBUQUERQUE    MOCLDY    64  23  21 SW5       29.94R
CANNON AFB     NOT AVBL
CLOVIS         PTCLDY    57  36  44 S14       29.91R
HOLLOMAN AFB   NOT AVBL
ROSWELL        PTCLDY    58  39  49 SW8       29.89R
RUIDOSO        MOCLDY    54  23  30 S6        30.03R
SANTA FE       MOCLDY    53  22  29 NW8       29.95R
TRUTH OR CONSE MOCLDY    66  23  19 N5        29.91R
TUCUMCARI      MOCLDY    52  44  74 E12       29.91R
$$

USA.gov is the U.S. government's official web portal to all federal, state and local government web resources and services.